COSMOS 397 DEB, 6843

Orbit data source: Space-Track

COSMOS 397 DEB, 6843 is space debris in LEO originally from a launch on Thu, 25 Feb 1971 UTC launched from the Tyuratam Missile And Space Complex (TTMTR). Debris objects in space refer to the collection of defunct objects orbiting the Earth. Examples of debris include non-operational satellites, rocket bodies, and fragments generated from explosions, collisions, or faulty payload assembly.

Loading next visibility...
Identifier
6843, 1971-015CK
Orbit
LEO
Country
Flag of CISCIS
Related business
Manufacturer
Unknown
Mission
Spacecraft
Bus & Motor
Unknown
Mass
Unknown
Launch date (UTC)
1971-02-25 (55 years ago)
Launch vehicle
Unknown
Launch site
Tyuratam Missile And Space Complex (TTMTR)
Object type
Payload
Rocket body
Debris
Shape & HBR
Unknown shape, 0.1 m
Radar Cross Section
Small (<0.1 m²)

Expand to show TLE details & history
Last TLE update: 7 hours ago

TLE from 7 hours ago
0 COSMOS 397 DEB
1 06843U 71015CK  25349.88201001  .00010994  00000-0  16435-2 0  9992
2 06843  65.6635 311.3347 0322634  39.9826 322.4549 14.45472704702560
Epoch: 2025-12-15T21:10Z
TLE epoch observation values (Epoch: 2025-12-15T21:10:05.664Z)
Latitude
-0.00002°
Longitude
-90.96311°
Altitude
563.252 km
Speed
7.675 km/s
True Right ascension
20h 45m 20s
True Declination
0° 00' 00"
Sunlit
Object was in daylight at epoch
Visualization orbit readout
Latitude
Unknown
Longitude
Unknown
Altitude
Unknown
Speed
Unknown
Apparent Right ascension
Unknown
Apparent Declination
Unknown
Sunlit
N/A
Visualization observer readout
Local Sidereal Time
03:12:45
Azimuth
Unknown
Elevation
Unknown
Doppler factor
Unknown
Orbital elements
Apogee altitude
968.58 km
Perigee altitude
509.337 km
Semi-major axis
7,117.096 km
Eccentricity
0.03226
Inclination
65.6635°
RAAN
311.3347°
Arg. of periapsis
39.9826°
True anomaly
320.12826°
Mean anomaly
322.4549°
Eccentric anomaly
321.29908°
Mean motion
3.61484 °/min
Orbital period
99.59 mins
BSTAR
0.0016435
Loading maneuver chart data...
Computing Atmospheric mass density...

Documentation

Showing up to 5 results
|